Regional Weather Roundup
Issued by NWS

Home | Current Version | Previous Version | Graphics & Text | Print | Product List | Glossary On
Versions: 1 2 3 4 5 6 7 8 9 10 11 12 13 14 15 16 17 18 19 20 21 22 23 24 25 26 27 28 29 30 31 32 33 34 35 36 37 38 39 40 41 42 43 44 45 46 47 48 49 50
000
ASUS43 KLOT 251600
RWRIL

ILLINOIS REGIONAL WEATHER ROUNDUP
NATIONAL WEATHER SERVICE CHICAGO/ROMEOVILLE IL
1100 AM CDT MON MAY 25 2015

NOTE: "FAIR" INDICATES FEW OR NO CLOUDS BELOW 12,000 FEET WITH NO
SIGNIFICANT WEATHER AND/OR OBSTRUCTIONS TO VISIBILITY.

* THESE STATIONS ARE NOT UNDER NWS QUALITY CONTROL. THEY ALSO MAY NOT
  REPORT WEATHER SUCH AS PRECIPITATION OR FOG.

ILZ001-002-007-009-015-016-024-251700-
NORTHWEST ILLINOIS

CITY           SKY/WX    TMP DP  RH WIND       PRES   REMARKS
MOLINE         PTSUNNY   71  61  70 W15       29.88R
STERLING*      PTSUNNY   72  63  73 W14       29.88R
$$

ILZ003-004-008-010-011-017-018-251700-
NORTH CENTRAL ILLINOIS

CITY           SKY/WX    TMP DP  RH WIND       PRES   REMARKS
ROCKFORD       CLOUDY    71  62  73 SW16G23   29.86R
FREEPORT*      CLOUDY    66  62  89 SW14G24   29.87R
$$

ILZ005-006-012>014-019>023-251700-
NORTHEAST ILLINOIS

CITY           SKY/WX    TMP DP  RH WIND       PRES   REMARKS
CHICAGO-OHARE  CLOUDY    68  64  87 SW14      29.87R
CHICAGO-MIDWAY LGT RAIN  68  65  90 SW17      29.89R
AURORA         CLOUDY    70  64  81 SW12      29.88R
WAUKEGAN       LGT RAIN  68  64  87 SW13G29   29.84S
DUPAGE AIRPORT HVY RAIN  67  65  93 SW13G23   29.87R FOG
WHEELING       LGT RAIN  68  65  90 S15G23    29.87R
NORTHERLY ISL    N/A     66  61  84 W13         N/A
$$

LMZ740>746-251700-
SOUTHERN LAKE MICHIGAN

STATION/POSITION SKY/WX   TEMP    WIND        PRES    VSBY  WAVE
                          AIR SEA DIR/SP/G                  HT/PER
                          (F)     (DEG/KT/KT) (MB)    (MI)  (FT/S)
SOUTHERN BUOY              49 38  180/ 14/ 16 1010.8          2/ 4
HARRISON CRIB              70     210/ 18/ 20   N/A
BURNHAM HARBOR             73     180/ 11/ 23   N/A
CALUMET HARBOR             72     190/ 16/ 25   N/A
BURNS HARBOR               73     210/ 19/ 32 1012.2F
MICHIGAN CITY              73     180/ 23/ 29   N/A
MICHIGAN CITY 6N           67 52  220/ 16/ 23   N/A           3/ 3
ST. JOSEPH                 64 54  230/ 14/ 19   N/A           3/ 3
$$

ILZ025>027-034>036-040-047-049-050-058-095>099-251700-
WEST-CENTRAL ILLINOIS

CITY           SKY/WX    TMP DP  RH WIND       PRES   REMARKS
QUINCY         PTSUNNY   71  63  75 SW14      29.97R
MACOMB*        PTSUNNY   70  64  82 SW14G20   29.96R
$$

ILZ028>032-037-038-041>044-048-051>054-059>061-251700-
CENTRAL ILLINOIS

CITY           SKY/WX    TMP DP  RH WIND       PRES   REMARKS
DECATUR        PTSUNNY   75  62  64 SW23G31   30.00R
PEORIA         PTSUNNY   73  63  70 SW15G23   29.94R
SPRINGFIELD    CLOUDY    73  61  65 SW13G24   30.00R
TAYLORVILLE    NOT AVBL
$$

ILZ033-039-045-046-055>057-062-063-251700-
EAST-CENTRAL ILLINOIS

CITY           SKY/WX    TMP DP  RH WIND       PRES   REMARKS
CHAMPAIGN      PTSUNNY   79  59  50 SW28G38   29.99R HX  80
MATTOON        PTSUNNY   74  65  73 SW15G28   30.02R
$$

ILZ079-100>102-251700-
SOUTHWEST ILLINOIS

CITY           SKY/WX    TMP DP  RH WIND       PRES   REMARKS
BELLEVILLE     PTSUNNY   76  68  74 SW8       30.02R
CAHOKIA*       PTSUNNY   77  64  64 S9        30.02S
SPARTA*        PTSUNNY   74  68  79 S12       30.05S
$$

ILZ064>066-069>071-074>076-080>082-084>086-088>090-092>094-251700-
SOUTH-CENTRAL ILLINOIS

CITY           SKY/WX    TMP DP  RH WIND       PRES   REMARKS
CARBONDALE     CLOUDY    73  66  78 SW14      30.06S
MARION         CLOUDY    73  68  83 S15       30.08S
MT. VERNON     CLOUDY    73  64  73 S15       30.08R
SALEM*         PTSUNNY   77  67  72 S15G24    30.05S
$$

ILZ067-068-072-073-078-083-087-091-251700-
SOUTHEAST ILLINOIS

CITY           SKY/WX    TMP DP  RH WIND       PRES   REMARKS
LAWRENCEVILLE  CLOUDY    72  66  81 SW15      30.09R
HARRISBURG*    CLOUDY    73  66  79 S14G21    30.09S
ROBINSON*      LGT RAIN  70  67  89 SW14      30.09R
$$

ABBREVIATIONS USED IN REMARKS
   TC - TEMPERATURE IN CELSIUS
  WCI - WIND CHILL INDEX
   HX - HEAT INDEX
  VSB - VISIBILITY
$$




USA.gov is the U.S. government's official web portal to all federal, state and local government web resources and services.